Temperature
20 20 19 19 19 20 22 22 23 23 22 23 23 22 21 21 21 20 20 20 20 20 20 19 19 19 19 20 19 19 19 19 19 19 19 19 19 19 19 19 19 19 19 19 19 19 19 19 19
20 20 20 20 20 20 22 23 23 23 23 23 23 22 21 20 20 20 20 20 20 20 20 20 19 19 19 20 19 19 19 19 19 19 19 19 19 19 19 19 19 19 19 19 19 19 19 19 18
20 20 20 19 21 21 23 23 23 23 23 23 22 22 21 20 20 20 20 20 20 20 20 20 19 19 19 19 19 19 19 19 19 19 19 19 19 19 19 19 19 19 19 19 19 19 19 18 18
21 20 20 20 22 22 23 23 23 23 23 23 22 21 21 20 20 20 20 20 20 20 20 20 19 19 19 19 19 19 19 19 19 19 19 19 19 19 19 19 19 19 19 19 19 19 18 18 18
21 21 20 21 22 23 23 24 24 23 23 22 22 21 20 20 21 21 20 20 20 20 20 20 19 20 19 19 19 19 19 19 19 19 19 19 19 19 19 19 19 19 19 19 18 18 18 18 18
22 21 21 22 23 24 24 24 24 23 22 22 22 20 20 20 21 21 20 20 20 20 20 20 19 19 19 19 19 19 19 19 19 19 19 19 19 19 19 19 19 19 19 18 18 18 18 18 18
21 20 21 22 23 24 24 24 23 23 22 22 22 20 20 20 20 20 20 20 20 20 20 20 19 19 19 19 19 19 19 19 19 19 19 19 19 19 19 19 19 19 19 19 18 18 18 18 18
22 20 22 22 23 24 24 24 24 23 23 22 22 20 20 20 20 20 20 20 20 20 20 20 19 19 19 19 19 19 19 19 19 19 19 19 19 19 19 19 19 19 19 19 18 18 18 18 18
23 21 21 23 24 24 24 24 24 23 23 22 22 22 21 21 20 20 20 20 20 20 20 20 20 19 19 19 19 19 19 19 19 19 19 19 19 19 19 19 19 19 19 18 18 18 18 18 18
23 21 23 24 24 24 24 24 23 23 22 22 21 21 21 20 20 20 20 20 20 20 20 20 20 19 19 19 19 19 19 19 19 19 19 19 19 19 19 19 18 18 18 18 18 18 18 18 18
23 22 24 25 25 25 24 24 24 23 22 22 21 21 21 20 20 20 20 20 20 20 20 20 20 19 19 19 19 19 19 19 19 19 19 19 19 19 18 18 18 18 18 18 18 18 18 18 18
23 24 25 25 26 25 24 24 23 23 23 23 22 22 21 20 20 20 20 20 20 20 20 20 20 19 19 19 19 19 19 19 19 19 19 19 19 19 19 19 18 18 18 18 18 18 18 18 18
25 25 25 25 25 25 24 23 23 22 23 22 22 21 21 21 20 20 20 20 20 20 20 20 20 19 19 19 19 19 19 19 19 19 19 19 19 19 19 19 18 18 18 18 18 18 18 18 18
25 25 25 25 25 25 24 23 23 22 22 22 21 21 21 21 21 20 20 20 20 20 20 20 20 19 19 19 19 19 19 19 19 19 19 19 18 18 18 19 18 18 18 18 18 18 18 18 18
26 25 25 25 25 25 24 23 22 22 22 21 20 20 20 20 20 20 20 20 20 20 20 20 19 19 19 19 19 19 19 19 19 19 18 18 18 18 18 18 18 18 18 18 18 18 18 18 18
25 24 24 25 25 24 24 23 22 22 22 21 20 20 20 20 20 20 20 20 20 20 20 20 19 19 19 19 19 19 19 19 19 18 18 18 18 18 18 18 18 18 18 18 18 18 18 18 18
23 23 24 25 25 24 23 22 22 22 21 21 20 20 20 20 20 20 20 20 20 20 20 20 19 19 19 19 19 19 19 19 19 18 18 18 18 18 18 18 18 18 18 18 18 18 18 18 18
24 24 24 24 25 24 23 22 22 22 21 21 20 20 20 20 20 20 20 20 20 20 20 20 19 19 19 19 19 19 19 18 18 18 18 18 18 18 18 18 18 18 18 18 18 18 18 18 18
24 24 24 24 25 24 23 22 22 21 21 20 20 20 20 20 20 20 20 20 20 20 20 20 20 19 19 19 19 19 19 19 18 18 18 18 18 18 18 18 18 18 18 18 18 17 18 18 18
24 24 23 24 25 24 22 22 22 21 21 21 20 20 20 20 20 20 20 20 20 20 20 20 20 19 19 19 19 19 19 19 19 18 18 18 18 18 18 18 18 18 18 18 17 17 17 18 17
24 23 24 24 24 23 23 22 22 21 21 21 21 21 21 21 21 21 20 20 20 20 20 20 20 20 19 19 19 19 19 19 18 19 18 18 18 18 18 18 18 17 17 17 17 17 17 17 17
24 24 24 24 23 21 23 22 22 21 20 21 21 21 21 21 21 21 21 20 20 20 20 20 20 20 19 19 19 19 19 19 19 19 19 18 18 18 18 18 18 17 17 17 17 17 17 17 17
24 24 24 23 22 21 21 21 21 20 20 20 21 21 21 21 21 21 21 21 21 20 20 20 20 20 20 19 19 19 19 19 19 18 18 18 18 18 18 18 18 17 17 17 17 17 17 17 17
24 23 22 20 20 21 22 21 21 20 21 21 21 21 21 21 22 22 21 21 21 20 20 20 20 20 20 19 19 19 19 19 19 19 19 18 18 18 18 18 17 17 17 17 17 17 17 17 17
23 22 21 22 20 21 21 21 21 21 21 21 21 21 22 21 21 21 21 21 21 20 20 20 20 20 19 19 19 19 19 19 19 19 18 18 18 18 18 18 17 17 17 17 17 17 17 17 17
23 22 21 22 21 20 21 21 21 22 22 22 22 22 22 22 22 22 22 21 21 20 20 20 20 20 19 19 19 19 18 18 18 18 18 18 18 18 18 17 17 17 17 17 17 17 17 17 17
23 21 21 19 20 20 20 20 21 22 21 21 21 21 21 21 22 22 21 21 21 20 20 20 20 20 19 19 19 19 19 18 18 18 18 18 18 18 17 17 17 17 17 17 17 17 17 17 17
23 19 18 19 20 21 21 21 21 22 21 20 20 20 21 21 21 21 21 21 21 20 20 20 20 20 19 19 19 19 19 18 18 18 18 18 18 17 17 17 17 17 17 17 17 17 17 17 17
22 21 18 17 18 19 20 21 21 21 21 20 20 20 21 21 21 21 21 21 20 20 20 20 20 19 19 19 19 19 19 18 18 18 18 17 18 17 17 17 17 17 17 17 17 17 16 16 16
23 21 18 20 19 17 19 20 21 20 20 20 20 20 20 21 21 21 21 20 20 20 20 19 19 19 19 19 18 18 18 18 18 18 18 18 18 17 17 17 17 17 17 17 16 16 16 16 16
Wind_Speed
8 7 3 1 2 4 3 3 1 3 3 3 5 6 6 4 2 3 1 4 6 7 8 11 14 15 15 16 16 17 17 18 18 18 18 18 18 18 18 16 15 15 15 14 14 14 14 13 13
6 5 2 1 4 4 3 3 3 3 3 4 5 6 6 5 4 5 3 4 7 8 8 10 14 14 15 15 16 16 17 17 18 18 18 18 17 17 16 16 14 14 14 13 13 13 13 12 12
6 4 1 3 3 2 1 1 3 4 4 3 4 5 4 3 4 3 3 7 7 6 8 10 14 14 15 15 15 16 16 17 17 17 17 17 17 16 15 14 14 13 13 12 12 12 12 11 11
3 0 2 4 3 1 1 1 3 3 4 5 4 5 4 4 3 4 7 8 8 5 7 10 13 13 14 14 15 15 16 16 16 16 16 16 15 15 14 13 13 12 12 11 11 11 11 10 10
0 2 5 4 3 2 1 1 2 3 3 4 5 5 3 4 7 9 8 7 7 5 6 9 12 12 13 14 14 14 15 15 15 14 14 14 14 13 13 12 12 11 10 10 9 9 9 9 8
2 3 5 3 3 2 1 2 3 5 4 4 4 4 3 3 7 7 7 6 6 6 5 8 11 12 12 12 13 14 13 13 13 13 13 13 12 12 11 11 11 10 10 9 8 8 7 7 7
3 3 2 1 1 1 1 3 3 3 4 3 3 4 2 3 5 6 6 6 6 5 5 5 7 9 10 11 12 12 12 12 12 12 12 11 10 10 10 10 9 9 8 8 7 7 6 6 6
3 4 2 1 1 1 1 3 3 3 3 4 4 5 4 5 6 7 7 6 6 5 4 4 5 6 7 8 10 11 11 11 11 11 10 9 8 8 8 8 8 8 7 7 6 6 6 5 4
3 4 0 2 2 1 2 3 2 2 5 3 2 3 5 11 10 9 7 5 5 5 4 4 4 5 5 6 7 8 9 10 9 9 9 7 4 4 4 6 7 6 6 6 6 5 5 4 3
4 2 4 3 3 2 2 2 3 3 3 2 4 6 11 12 10 9 8 7 6 5 4 3 4 4 5 4 4 5 6 7 6 5 5 4 3 3 3 4 5 5 5 5 5 4 4 3 2
3 3 3 1 2 3 3 2 3 5 1 3 7 12 12 11 9 8 7 6 6 5 4 4 4 4 4 3 4 4 4 5 5 5 4 4 2 2 1 1 2 3 3 2 3 2 1 1 1
2 3 1 0 2 3 3 3 3 2 2 4 10 14 13 11 9 9 8 6 5 5 4 4 4 4 4 3 3 3 3 3 3 4 4 3 1 1 1 1 1 1 1 1 1 1 1 2 2
1 2 1 2 3 4 5 4 3 2 4 9 12 12 11 10 8 6 6 5 5 5 4 3 4 4 4 3 2 3 3 3 4 4 4 4 2 1 1 1 2 2 2 2 2 2 2 2 2
1 1 1 2 3 3 5 3 4 2 7 10 11 10 9 9 8 7 6 6 5 5 4 4 4 4 4 3 3 2 3 3 3 4 4 4 4 2 2 1 2 2 3 3 3 3 2 2 2
2 3 4 2 2 2 5 4 1 4 8 9 8 8 8 6 7 7 7 6 5 4 4 4 4 4 4 3 3 3 3 4 3 3 5 5 4 3 2 2 2 2 2 2 1 2 2 1 1
4 4 2 3 1 2 5 2 2 6 9 8 7 7 7 6 6 5 5 4 4 4 4 3 4 4 4 3 3 2 3 3 3 4 4 5 5 5 3 2 2 2 1 1 1 1 1 1 1
4 1 2 4 1 3 3 3 3 6 8 8 7 7 7 6 5 4 5 5 4 4 4 4 3 3 3 3 2 2 3 3 3 4 4 5 5 5 4 2 2 1 1 1 1 1 1 1 1
2 1 2 2 2 3 2 3 3 6 7 7 7 7 6 7 7 6 5 5 4 4 4 4 3 3 3 2 2 1 1 1 2 3 5 6 5 5 4 2 2 2 1 1 1 1 0 0 1
3 2 2 3 2 2 3 4 5 7 7 7 6 7 7 7 5 5 5 5 5 4 4 4 3 3 3 2 2 2 2 1 1 3 4 5 5 5 4 3 2 2 2 2 2 1 1 0 1
3 2 2 3 1 1 1 3 3 6 8 8 9 9 9 7 6 7 6 6 6 5 5 4 3 3 3 3 2 2 1 1 2 2 2 4 5 5 5 4 3 2 2 2 2 2 1 1 1
2 4 4 3 2 3 2 4 2 2 4 6 7 8 8 10 10 8 8 7 6 7 6 6 5 3 3 2 2 1 1 1 0 1 1 2 4 4 4 4 3 3 3 3 3 3 3 2 1
4 5 5 3 2 2 1 3 6 3 3 6 8 9 9 9 8 8 9 8 8 8 6 5 4 4 3 3 3 3 2 2 2 1 1 1 1 1 2 3 3 3 3 4 4 3 3 3 2
5 1 4 3 3 1 1 2 7 1 4 8 9 10 10 10 9 10 10 10 8 7 6 5 4 4 3 3 3 3 2 2 1 0 1 1 1 1 0 1 2 3 3 4 4 3 4 3 3
4 6 7 6 5 1 3 3 6 4 7 7 9 10 10 10 9 8 8 7 6 6 6 5 5 4 4 4 3 4 3 2 1 0 0 1 0 0 0 0 1 2 3 3 4 4 4 4 4
5 6 4 4 3 5 2 3 8 7 6 8 9 10 10 10 9 8 8 8 8 8 8 7 7 5 4 4 4 4 3 3 3 2 1 1 1 1 2 1 1 2 2 2 2 3 4 4 4
4 8 7 5 5 5 2 5 7 5 5 4 5 5 7 8 9 10 10 9 8 9 9 8 8 6 5 5 4 3 3 3 2 2 2 2 2 2 2 1 1 2 2 2 2 2 3 3 4
6 4 7 7 2 1 5 6 8 2 2 1 3 5 6 7 8 8 8 7 7 8 9 9 8 6 5 5 4 3 3 2 2 2 2 2 2 2 1 1 1 1 1 1 2 2 2 2 2
5 9 6 6 5 3 5 5 5 6 5 3 3 5 5 6 7 6 6 7 7 7 6 7 7 7 6 5 4 3 2 2 2 2 2 2 2 1 1 1 1 1 1 1 1 2 2 2 3
4 5 5 5 5 6 4 7 6 8 7 6 6 5 6 6 7 7 6 5 5 5 6 7 6 5 5 5 4 3 3 3 3 2 3 3 2 2 2 2 2 2 2 1 1 2 3 3 3
4 6 8 5 4 5 4 8 4 4 5 5 4 3 4 5 5 5 5 5 5 6 6 7 6 6 5 5 4 4 3 3 3 3 3 3 3 2 2 2 2 2 2 2 2 3 3 3 4
Wind_Direction
163 150 149 168 47 46 17 345 30 49 49 54 73 77 91 82 98 124 106 123 123 126 129 129 126 129 130 128 128 127 128 128 130 132 132 133 135 137 137 136 136 136 134 133 132 130 128 127 128
153 162 196 45 67 50 348 347 56 61 123 119 73 69 71 65 70 104 113 128 127 128 131 134 133 132 131 130 130 130 128 129 130 133 134 135 136 138 138 138 138 136 134 134 134 133 131 130 130
172 193 57 54 66 121 294 344 92 86 75 62 71 61 68 81 99 115 134 130 120 123 133 140 137 135 133 132 133 132 131 131 133 134 136 137 137 138 139 141 140 138 138 137 137 135 133 133 133
178 123 43 55 41 296 212 179 124 106 50 46 82 69 57 55 111 123 126 125 121 123 136 142 139 137 135 134 135 137 136 136 137 138 138 140 140 140 142 144 143 142 141 140 140 138 137 137 137
104 67 47 35 355 334 37 124 82 81 69 59 81 89 55 31 93 112 121 126 129 129 136 144 141 140 138 137 138 140 140 141 141 142 142 142 144 145 147 148 147 147 146 146 145 143 143 144 143
54 58 59 14 342 357 65 81 77 72 88 86 89 95 63 83 106 122 124 124 125 127 129 142 147 145 143 142 143 142 142 144 144 146 147 146 146 148 149 151 151 152 153 154 153 152 150 148 150
92 77 81 323 325 341 123 91 94 100 90 101 108 98 92 122 125 127 119 113 111 113 115 126 144 147 146 146 147 146 144 145 147 148 148 147 150 152 154 155 158 160 161 162 163 163 162 162 164
138 93 42 331 224 264 128 92 96 96 96 111 109 132 166 165 130 116 110 103 103 104 106 106 122 133 139 144 146 146 144 146 148 149 148 152 156 160 163 164 170 172 172 173 173 174 176 177 177
121 69 332 238 200 225 140 104 87 78 95 83 84 126 142 134 126 117 114 107 114 119 110 107 106 115 123 136 150 150 147 144 145 148 152 150 140 151 169 180 183 185 186 185 186 188 188 188 189
101 124 234 224 187 166 134 109 125 97 86 72 74 91 119 131 135 136 139 141 144 147 138 123 120 116 124 143 138 136 137 138 136 134 137 134 134 159 179 200 203 202 200 196 195 200 196 188 187
147 198 248 287 146 134 116 93 95 120 159 189 157 145 140 139 141 145 148 151 157 154 148 139 130 125 125 124 125 126 133 136 143 146 149 144 147 186 208 235 244 216 206 209 203 208 206 206 218
168 263 223 129 110 114 132 124 91 102 220 145 147 147 144 147 154 159 159 159 150 147 151 143 137 134 132 130 130 133 134 141 154 165 163 156 161 204 226 243 248 236 224 227 228 232 230 236 226
171 298 57 121 103 106 101 98 104 55 87 112 126 136 146 150 153 149 147 145 145 153 155 151 144 143 142 136 152 152 152 162 171 176 180 179 179 209 227 238 235 231 233 228 222 224 222 234 242
241 349 37 92 109 118 112 88 90 103 111 117 130 141 151 153 153 146 147 152 158 161 160 150 145 148 146 153 162 163 171 177 177 186 196 193 195 203 210 223 229 231 224 223 220 225 225 229 220
39 36 20 55 98 133 109 47 106 146 127 131 142 146 149 153 151 159 165 164 166 162 150 150 158 151 153 163 174 173 182 181 188 205 204 204 206 206 206 210 218 228 221 211 227 235 216 215 208
34 43 6 307 106 128 117 220 213 148 141 147 151 154 156 160 164 164 159 161 161 153 149 156 160 153 163 175 179 170 178 182 201 214 213 215 213 209 202 203 218 224 192 169 180 182 161 192 208
30 33 296 314 5 120 132 215 208 156 157 163 163 167 169 165 171 172 167 170 171 164 154 152 151 156 169 175 171 168 175 187 206 213 217 221 217 213 204 207 225 197 153 146 197 159 172 188 252
230 217 279 287 313 107 139 217 191 178 173 176 173 172 178 182 191 183 172 166 167 162 154 154 148 147 145 139 129 135 172 205 210 220 223 219 216 213 209 217 222 185 157 184 194 176 189 207 234
172 189 259 268 266 129 199 220 206 189 186 187 186 182 188 198 192 175 169 159 156 157 156 161 155 160 148 152 159 173 204 221 238 239 228 221 218 211 202 216 207 183 187 204 194 168 151 59 95
170 210 269 305 355 136 232 275 232 198 202 196 193 196 195 190 184 182 177 171 172 175 177 176 175 171 171 178 178 173 174 203 227 261 246 227 219 210 205 198 200 195 198 208 197 176 165 170 138
212 195 215 227 6 42 69 332 270 232 212 203 199 198 197 193 190 185 183 185 183 189 189 190 192 184 180 171 138 107 75 37 21 299 260 247 231 213 203 200 196 195 199 216 219 196 187 201 200
249 220 191 177 101 306 91 273 278 235 231 217 210 203 204 200 188 185 186 190 196 200 194 190 184 182 181 158 151 155 170 199 236 259 246 258 225 201 203 200 199 204 205 215 222 204 193 189 208
210 141 134 124 132 53 4 180 283 214 239 237 221 209 205 196 188 190 193 196 196 191 192 194 182 183 176 165 170 178 197 209 228 341 350 339 40 79 156 187 192 214 215 218 219 208 197 194 201
141 72 60 53 77 323 243 182 273 232 225 235 220 213 206 192 188 192 193 186 189 186 190 187 182 192 184 176 179 185 195 194 172 216 322 314 335 337 337 224 220 225 227 228 227 218 206 206 207
95 91 39 2 8 253 254 199 248 248 232 221 214 208 200 189 185 186 183 188 192 191 192 190 189 194 190 186 191 195 195 182 185 195 203 216 281 286 287 268 239 235 236 233 228 222 218 208 209
165 141 158 195 220 270 307 232 253 264 259 233 206 186 179 183 184 189 191 191 193 193 193 192 192 194 190 192 202 196 188 189 201 193 191 206 232 249 267 247 242 247 242 233 213 223 230 217 220
142 167 161 136 152 265 279 283 300 292 305 215 170 157 174 184 183 186 185 184 190 193 194 191 188 190 191 193 194 197 191 190 204 203 205 230 249 245 240 234 246 263 245 222 194 211 228 229 233
133 143 107 126 154 234 282 274 255 263 255 236 198 189 187 179 177 179 181 185 191 193 187 178 180 186 187 187 193 199 190 197 205 206 232 244 255 258 234 233 243 260 267 257 220 237 237 227 241
111 108 109 118 152 163 236 264 232 228 224 218 219 205 191 185 182 183 183 181 175 170 170 176 176 176 184 189 188 192 195 198 200 214 235 238 236 235 238 237 237 247 258 264 247 250 239 237 251
165 164 149 157 208 179 188 261 281 229 224 211 215 199 187 185 181 175 170 162 166 173 176 176 175 179 186 185 181 191 198 199 210 230 241 239 235 231 229 233 236 246 255 254 247 256 252 242 249
Height
1491 1491 1492 1494 1496 1503 1504 1497 1491 1491 1491 1491 1491 1491 1494 1496 1500 1505 1502 1500 1501 1502 1502 1502 1503 1506 1508 1510 1512 1514 1515 1517 1519 1520 1522 1524 1526 1528 1530 1532 1534 1536 1538 1539 1541 1543 1544 1546 1547
1492 1492 1494 1495 1502 1514 1508 1496 1494 1492 1492 1492 1492 1494 1495 1497 1498 1500 1500 1502 1503 1504 1505 1506 1507 1509 1511 1512 1514 1516 1518 1519 1521 1523 1524 1526 1528 1530 1532 1534 1536 1538 1539 1541 1542 1544 1546 1547 1549
1493 1494 1496 1497 1505 1512 1506 1495 1493 1493 1493 1493 1494 1496 1497 1499 1500 1501 1502 1504 1505 1507 1508 1509 1510 1512 1513 1515 1516 1518 1520 1521 1523 1525 1527 1528 1530 1532 1534 1536 1537 1539 1540 1542 1544 1545 1547 1549 1550
1494 1496 1497 1502 1506 1501 1498 1494 1493 1493 1494 1494 1495 1498 1500 1502 1502 1503 1504 1506 1507 1509 1510 1511 1513 1514 1516 1517 1519 1520 1522 1523 1525 1527 1529 1530 1532 1534 1535 1537 1539 1540 1542 1543 1545 1547 1548 1550 1551
1496 1497 1502 1508 1504 1498 1494 1494 1494 1495 1496 1497 1497 1500 1502 1504 1504 1505 1506 1508 1509 1511 1512 1513 1515 1516 1518 1519 1521 1522 1524 1525 1527 1529 1530 1532 1534 1536 1537 1539 1540 1542 1543 1545 1546 1548 1549 1550 1552
1497 1498 1510 1514 1505 1497 1495 1496 1496 1497 1498 1499 1499 1501 1504 1506 1506 1507 1508 1509 1511 1512 1514 1516 1517 1519 1520 1521 1523 1524 1526 1527 1529 1530 1532 1534 1535 1537 1539 1540 1541 1543 1544 1546 1547 1548 1550 1551 1553
1499 1503 1510 1509 1506 1500 1497 1497 1497 1498 1499 1500 1501 1503 1505 1506 1507 1508 1509 1511 1512 1514 1516 1517 1519 1520 1522 1523 1524 1526 1527 1529 1530 1532 1533 1535 1537 1538 1540 1541 1542 1544 1545 1546 1548 1549 1550 1552 1553
1499 1503 1508 1508 1506 1502 1497 1498 1499 1499 1500 1501 1502 1503 1505 1506 1508 1509 1510 1512 1514 1516 1517 1519 1520 1522 1523 1525 1526 1527 1528 1530 1532 1533 1535 1536 1538 1539 1541 1542 1543 1544 1545 1547 1548 1549 1551 1552 1553
1499 1507 1512 1507 1504 1500 1497 1498 1500 1500 1501 1502 1502 1503 1504 1506 1508 1510 1511 1513 1515 1517 1518 1520 1521 1523 1524 1526 1527 1528 1530 1531 1533 1534 1536 1537 1539 1540 1541 1542 1544 1545 1546 1547 1548 1549 1551 1552 1553
1500 1510 1505 1499 1497 1497 1497 1498 1500 1501 1502 1502 1503 1504 1505 1507 1509 1510 1512 1513 1516 1518 1520 1521 1523 1524 1526 1527 1528 1530 1531 1532 1534 1535 1537 1538 1539 1541 1542 1543 1544 1545 1546 1547 1548 1550 1551 1552 1553
1500 1503 1498 1496 1496 1496 1497 1499 1500 1501 1503 1501 1501 1503 1505 1508 1510 1512 1514 1515 1517 1519 1521 1523 1524 1525 1526 1528 1529 1530 1532 1533 1535 1536 1538 1539 1540 1541 1542 1543 1544 1544 1545 1547 1548 1549 1550 1551 1552
1500 1497 1496 1496 1496 1497 1498 1499 1501 1502 1502 1501 1502 1503 1506 1509 1511 1513 1515 1517 1519 1521 1522 1524 1525 1526 1527 1529 1530 1531 1533 1534 1536 1537 1538 1539 1540 1541 1542 1543 1543 1544 1545 1547 1548 1549 1550 1550 1551
1498 1497 1496 1496 1496 1497 1498 1500 1501 1503 1502 1502 1504 1507 1508 1510 1512 1515 1517 1519 1521 1522 1524 1525 1526 1527 1528 1530 1531 1532 1533 1535 1536 1537 1538 1539 1540 1541 1542 1542 1543 1544 1545 1546 1547 1548 1549 1549 1550
1498 1497 1496 1496 1497 1498 1500 1502 1503 1504 1504 1505 1506 1508 1510 1511 1513 1516 1518 1520 1521 1523 1524 1526 1527 1528 1529 1530 1531 1533 1534 1535 1536 1538 1539 1539 1540 1541 1541 1542 1542 1543 1544 1545 1546 1547 1547 1548 1549
1498 1499 1498 1498 1498 1500 1501 1506 1505 1504 1506 1507 1508 1510 1511 1513 1515 1517 1518 1520 1522 1524 1525 1526 1527 1529 1530 1531 1532 1533 1534 1535 1536 1538 1539 1539 1540 1541 1541 1542 1542 1543 1544 1544 1545 1545 1546 1547 1547
1500 1505 1510 1501 1499 1500 1506 1513 1506 1506 1506 1508 1510 1511 1513 1515 1516 1518 1520 1522 1523 1524 1526 1527 1528 1529 1530 1531 1532 1533 1534 1535 1536 1538 1539 1539 1540 1540 1541 1541 1542 1542 1543 1543 1544 1544 1544 1545 1546
1511 1517 1514 1506 1500 1501 1506 1511 1506 1506 1507 1508 1510 1512 1514 1515 1517 1518 1520 1522 1523 1525 1526 1527 1528 1529 1531 1532 1532 1533 1534 1535 1536 1537 1538 1539 1540 1540 1540 1541 1541 1542 1542 1543 1543 1544 1544 1544 1545
1517 1516 1514 1511 1503 1503 1507 1508 1506 1506 1507 1508 1510 1512 1514 1515 1516 1518 1520 1522 1523 1525 1526 1527 1528 1529 1531 1531 1532 1533 1534 1535 1536 1536 1537 1538 1538 1539 1540 1540 1541 1541 1542 1542 1543 1543 1543 1544 1544
1507 1512 1515 1509 1502 1505 1508 1508 1505 1505 1507 1508 1510 1511 1512 1514 1516 1518 1520 1521 1523 1524 1525 1527 1528 1529 1530 1531 1531 1532 1533 1534 1534 1535 1536 1536 1537 1538 1538 1539 1540 1540 1540 1541 1542 1542 1542 1543 1544
1506 1512 1513 1508 1502 1505 1509 1508 1504 1503 1504 1505 1507 1509 1510 1513 1515 1517 1518 1520 1522 1523 1525 1526 1527 1528 1529 1530 1531 1532 1532 1533 1533 1534 1534 1534 1535 1536 1537 1537 1538 1539 1540 1540 1540 1541 1541 1542 1543
1506 1510 1510 1511 1506 1506 1509 1513 1508 1504 1504 1505 1506 1507 1509 1510 1511 1514 1516 1518 1520 1522 1523 1524 1526 1527 1528 1529 1530 1531 1532 1532 1532 1533 1532 1533 1533 1534 1535 1536 1537 1537 1538 1538 1539 1539 1540 1541 1542
1508 1500 1502 1506 1515 1522 1516 1530 1511 1506 1505 1503 1503 1504 1505 1507 1509 1511 1514 1516 1518 1520 1522 1523 1525 1526 1527 1528 1529 1530 1530 1530 1531 1531 1531 1531 1532 1532 1533 1534 1535 1535 1536 1537 1537 1537 1537 1539 1539
1499 1495 1500 1506 1515 1523 1521 1528 1519 1507 1507 1502 1499 1500 1502 1504 1506 1508 1510 1513 1516 1519 1520 1522 1524 1525 1526 1527 1528 1529 1529 1530 1530 1530 1530 1530 1531 1531 1532 1532 1533 1533 1534 1535 1535 1535 1535 1536 1537
1494 1500 1506 1515 1522 1534 1524 1529 1523 1510 1502 1497 1495 1496 1498 1500 1503 1506 1508 1511 1514 1517 1518 1520 1521 1523 1524 1526 1527 1527 1528 1529 1529 1529 1529 1529 1529 1530 1530 1531 1531 1531 1532 1532 1533 1533 1533 1534 1535
1496 1514 1533 1535 1542 1538 1522 1525 1518 1497 1492 1491 1490 1492 1494 1497 1500 1503 1506 1508 1511 1513 1516 1517 1519 1521 1523 1524 1525 1526 1526 1527 1527 1527 1527 1527 1528 1528 1528 1529 1528 1529 1529 1530 1530 1531 1531 1532 1532
1500 1509 1532 1543 1545 1537 1523 1524 1506 1491 1488 1487 1488 1490 1492 1495 1497 1500 1503 1506 1508 1511 1513 1515 1516 1518 1521 1522 1523 1524 1525 1525 1525 1525 1526 1526 1526 1526 1527 1527 1527 1526 1527 1527 1527 1528 1529 1529 1530
1499 1508 1509 1528 1533 1537 1530 1517 1500 1488 1487 1487 1487 1488 1490 1492 1495 1498 1501 1503 1506 1508 1510 1512 1514 1516 1518 1520 1522 1522 1523 1524 1524 1524 1524 1524 1525 1525 1525 1525 1524 1524 1524 1524 1525 1525 1525 1526 1526
1490 1501 1516 1528 1541 1543 1530 1521 1512 1494 1490 1488 1487 1487 1488 1491 1494 1496 1499 1501 1503 1505 1507 1510 1512 1514 1516 1518 1519 1520 1521 1522 1522 1522 1522 1522 1522 1522 1522 1522 1522 1522 1522 1522 1522 1523 1523 1523 1524
1496 1503 1513 1525 1527 1539 1539 1523 1492 1489 1486 1486 1485 1485 1487 1489 1491 1494 1497 1499 1501 1503 1505 1507 1509 1511 1514 1515 1517 1518 1518 1519 1520 1520 1520 1520 1520 1520 1520 1520 1520 1519 1519 1519 1520 1520 1520 1520 1520
1488 1495 1507 1518 1525 1530 1531 1517 1484 1483 1482 1483 1484 1485 1486 1488 1490 1492 1495 1497 1499 1501 1503 1505 1507 1509 1511 1513 1514 1515 1516 1517 1517 1517 1517 1518 1517 1517 1517 1517 1517 1517 1516 1516 1517 1516 1516 1516 1516